Location: Unspecified
(64.9034°N, 0.0000°E)
Time: 01:10:29
(UTC+00:00)

Iridium 4 Rocket - Visible Passes

Search period start: 04 April 2026 00:00
Search period end: 14 April 2026 00:00
Orbit: 579 x 886 km, 86.9° (Epoch: 29 March)

Date Brightness Start Highest point End Pass type
(mag) Time Alt. Az. Time Alt. Az. Time Alt. Az.
4 Apr 5.7 02:51:56 10° ESE 02:55:08 21° ENE 02:58:29 10° NNE visible
5 Apr 6.1 02:07:00 10° E 02:08:53 13° ENE 02:10:50 10° NE visible
5 Apr 4.2 03:43:30 10° SSE 03:47:34 48° E 03:51:53 10° NNE visible
6 Apr 5.3 02:57:27 10° SE 03:01:02 27° ENE 03:04:50 10° NNE visible
7 Apr 5.9 02:12:03 10° ESE 02:14:43 16° ENE 02:17:30 10° NNE visible
7 Apr 3.7 03:49:22 10° S 03:53:35 62° E 03:58:07 10° N visible
8 Apr 4.9 03:03:04 10° SE 03:06:58 34° E 03:11:09 10° NNE visible
9 Apr 5.8 02:17:21 10° ESE 02:20:34 20° ENE 02:23:58 10° NNE visible
10 Apr 6.1 01:32:32 10° E 01:34:22 12° ENE 01:36:17 10° NE visible
10 Apr 4.4 03:08:47 10° SSE 03:12:56 44° E 03:17:24 10° NNE visible
11 Apr 5.4 02:22:48 10° SE 02:26:27 26° ENE 02:30:20 10° NNE visible
12 Apr 5.9 01:37:30 10° E 01:40:11 16° ENE 01:42:59 10° NNE visible
12 Apr 3.9 03:14:35 10° SSE 03:18:55 57° E 03:23:39 10° N visible
13 Apr 5.0 02:28:23 10° SE 02:32:22 32° ENE 02:36:40 10° NNE visible
